Weather History for Marrakech, Morocco

Change the Weather History Date:

Sunday, November 24, 2013

  Actual Average Record
Temperature  
Mean Temperature 63 °F -  
Max Temperature 70 °F 65 °F - ()
Min Temperature 56 °F 44 °F - ()
Degree Days  
Heating Degree Days 2    
Growing Degree Days 13 (Base 50)    
Moisture  
Dew Point 59 °F    
Average Humidity 88    
Maximum Humidity 100    
Minimum Humidity 60    
Precipitation  
Precipitation 0.00 in 0.04 in - ()
Sea Level Pressure  
Sea Level Pressure 29.92 in    
Wind  
Wind Speed 6 mph ()    
Max Wind Speed 13 mph    
Max Gust Speed -    
Visibility 6.1 miles    
Events Rain    
T = Trace of Precipitation, MM = Missing Value Source: Averaged Metar Reports

Daily Weather History Graph

Daily Weather History Graph

Search for Another Location

Airport:

Trip Planner

Search our weather history database for the weather conditions in past years. The results will help you decide how hot, cold, wet, or windy it might be!

Date:

Astronomy

Nov. 24, 2013 Rise Set
Actual Time 7:08 AM WET 5:29 PM WET
Civil Twilight 6:41 AM WET 5:55 PM WET
Nautical Twilight 6:12 AM WET 6:25 PM WET
Astronomical Twilight 5:42 AM WET 6:54 PM WET
Moon 11:31 PM WET (11/24) 11:58 AM WET (11/24)
Length of Visible Light 11h 13m
Length of Day
10h 21m
Waning Gibbous, 62% of the Moon is Illuminated
Nov 24
Waning Gibbous
Nov 25
Last Quarter
Dec 3
New
Dec 9
First Quarter
Dec 17
Full

Hourly Weather History & Observations

Time (WET) Temp. Dew Point Humidity Pressure Visibility Wind Dir Wind Speed Gust Speed Precip Events Conditions
12:00 AM 60 °F 60 °F 100% 29.96 in 6 mi SSW 5.8 mph - -   Mostly Cloudy
12:00 AM 60.8 °F 60.8 °F 100% 29.98 in 6.2 mi SSW 5.8 mph - N/A   Scattered Clouds
12:30 AM 59.0 °F 59.0 °F 100% 29.98 in 6.2 mi SW 4.6 mph - N/A   Scattered Clouds
1:00 AM 59.0 °F 59.0 °F 100% 29.95 in 6.2 mi SW 3.5 mph - N/A   Scattered Clouds
1:30 AM 57.2 °F 57.2 °F 100% 29.95 in 6.2 mi Variable 2.3 mph - N/A   Scattered Clouds
2:00 AM 57.2 °F 57.2 °F 100% 29.95 in 6.2 mi WSW 3.5 mph - N/A   Scattered Clouds
2:30 AM 57.2 °F 57.2 °F 100% 29.95 in 6.2 mi SW 5.8 mph - N/A   Scattered Clouds
3:00 AM 58 °F 58 °F 98% 29.93 in 6 mi SW 8.1 mph - -   Partly Cloudy
3:00 AM 57.2 °F 57.2 °F 100% 29.95 in 6.2 mi SW 8.1 mph - N/A   Scattered Clouds
3:30 AM 57.2 °F 57.2 °F 100% 29.95 in 6.2 mi SW 6.9 mph - N/A   Scattered Clouds
4:00 AM 57.2 °F 57.2 °F 100% 29.95 in 6.2 mi SW 5.8 mph - N/A   Scattered Clouds
4:30 AM 57.2 °F 57.2 °F 100% 29.95 in 6.2 mi SW 6.9 mph - N/A   Scattered Clouds
5:00 AM 59.0 °F 57.2 °F 94% 29.95 in 6.2 mi SSW 8.1 mph - N/A   Scattered Clouds
5:30 AM 59.0 °F 57.2 °F 94% 29.95 in 6.2 mi SSW 5.8 mph - N/A   Scattered Clouds
6:00 AM 59 °F 57 °F 91% 29.91 in 6 mi SSW 6.9 mph - -   Partly Cloudy
6:00 AM 59.0 °F 57.2 °F 94% 29.92 in 6.2 mi SSW 6.9 mph - N/A   Scattered Clouds
6:30 AM 59.0 °F 57.2 °F 94% 29.92 in 6.2 mi South 6.9 mph - N/A   Scattered Clouds
7:00 AM 57.2 °F 55.4 °F 94% 29.92 in 6.2 mi South 6.9 mph - N/A   Scattered Clouds
7:30 AM 59.0 °F 57.2 °F 94% 29.92 in 6.2 mi South 8.1 mph - N/A   Scattered Clouds
8:00 AM 59.0 °F 57.2 °F 94% 29.92 in 6.2 mi South 6.9 mph - N/A   Scattered Clouds
8:30 AM 59.0 °F 57.2 °F 94% 29.95 in 6.2 mi Variable 3.5 mph - N/A   Scattered Clouds
9:00 AM 61 °F 57 °F 83% 29.92 in 6 mi WNW 2.3 mph - -   Partly Cloudy
9:00 AM 60.8 °F 57.2 °F 88% 29.95 in 6.2 mi Variable 2.3 mph - N/A   Scattered Clouds
9:30 AM 62.6 °F 57.2 °F 82% 29.95 in 6.2 mi Variable 2.3 mph - N/A   Scattered Clouds
10:00 AM 64.4 °F 59.0 °F 83% 29.95 in 6.2 mi WNW 5.8 mph - N/A   Scattered Clouds
10:30 AM 66.2 °F 59.0 °F 78% 29.95 in 6.2 mi WNW 4.6 mph - N/A   Scattered Clouds
11:00 AM 66.2 °F 59.0 °F 78% 29.95 in 6.2 mi West 8.1 mph - N/A   Mostly Cloudy
11:30 AM 66.2 °F 60.8 °F 83% 29.95 in 6.2 mi NW 9.2 mph - N/A   Mostly Cloudy
12:00 PM 66 °F 60 °F 76% 29.89 in 6 mi WNW 10.4 mph - -   Mostly Cloudy
12:00 PM 66.2 °F 60.8 °F 83% 29.92 in 6.2 mi WNW 10.4 mph - N/A   Mostly Cloudy
12:30 PM 66.2 °F 60.8 °F 83% 29.92 in 6.2 mi West 10.4 mph - N/A   Mostly Cloudy
1:00 PM 68.0 °F 60.8 °F 78% 29.89 in 6.2 mi WSW 12.7 mph - N/A   Mostly Cloudy
1:30 PM 68.0 °F 59.0 °F 73% 29.89 in 6.2 mi West 11.5 mph - N/A   Mostly Cloudy
2:00 PM 68.0 °F 60.8 °F 78% 29.89 in 6.2 mi WNW 10.4 mph - N/A   Mostly Cloudy
2:30 PM 68.0 °F 59.0 °F 73% 29.86 in 6.2 mi WNW 10.4 mph - N/A   Mostly Cloudy
3:00 PM 69 °F 59 °F 62% 29.81 in 6 mi West 9.2 mph - -   Mostly Cloudy
3:00 PM 69.8 °F 59.0 °F 68% 29.86 in 6.2 mi West 9.2 mph - N/A   Mostly Cloudy
3:30 PM 69.8 °F 59.0 °F 68% 29.86 in 6.2 mi WSW 9.2 mph - N/A   Mostly Cloudy
4:00 PM 71.6 °F 57.2 °F 60% 29.86 in 6.2 mi West 10.4 mph - N/A   Mostly Cloudy
4:30 PM 69.8 °F 59.0 °F 68% 29.86 in 6.2 mi West 8.1 mph - N/A   Unknown
5:00 PM 68.0 °F 59.0 °F 73% 29.86 in 6.2 mi West 10.4 mph - N/A   Mostly Cloudy
5:30 PM 66.2 °F 60.8 °F 83% 29.86 in 6.2 mi WNW 11.5 mph - N/A   Mostly Cloudy
6:00 PM 65 °F 60 °F 78% 29.84 in 6 mi WNW 9.2 mph - -   Mostly Cloudy
6:00 PM 66.2 °F 60.8 °F 83% 29.89 in 6.2 mi WNW 10.4 mph - N/A   Mostly Cloudy
6:30 PM 64.4 °F 60.8 °F 88% 29.89 in 6.2 mi NNW 8.1 mph - N/A   Mostly Cloudy
7:00 PM 62.6 °F 60.8 °F 94% 29.89 in 6.2 mi NNW 10.4 mph - N/A   Unknown
7:30 PM 60.8 °F 59.0 °F 94% 29.92 in 6.2 mi NNW 10.4 mph - N/A   Unknown
8:00 PM 60.8 °F 59.0 °F 94% 29.92 in 6.2 mi NNW 5.8 mph - N/A   Mostly Cloudy
8:30 PM 60.8 °F 59.0 °F 94% 29.92 in 6.2 mi NNW 3.5 mph - N/A   Mostly Cloudy
9:00 PM 61 °F 59 °F 89% 29.90 in 6 mi West 4.6 mph - -   Mostly Cloudy
9:00 PM 60.8 °F 59.0 °F 94% 29.92 in 6.2 mi West 3.5 mph - N/A   Mostly Cloudy
9:30 PM 60.8 °F 59.0 °F 94% 29.92 in 6.2 mi West 3.5 mph - N/A   Mostly Cloudy
10:00 PM 60.8 °F 59.0 °F 94% 29.92 in 6.2 mi Calm Calm - N/A   Mostly Cloudy
10:30 PM 60.8 °F 59.0 °F 94% 29.92 in 6.2 mi WSW 3.5 mph - N/A   Mostly Cloudy
11:00 PM 59.0 °F 59.0 °F 100% 29.92 in 3.1 mi North 5.8 mph - N/A Rain Rain
11:30 PM 59.0 °F 59.0 °F 100% 29.92 in 3.7 mi NNE 8.1 mph - N/A   Mostly Cloudy